Quick links : Home Page : Contact Us : Index : Site Map : Search Site : Ephemerides


(163760) 2003 OR14

Orbital Elements

The following orbital elements are taken from MPO123540
(163760) 2003 OR14
Epoch 2007 Oct. 27.0 TT = JDT 2454400.5                 MPC
M 335.15048              (2000.0)            P               Q
n   0.24680887     Peri.  211.81337     +0.45512545     -0.88254143
a   2.5170714      Node   211.57153     +0.85697295     +0.47020459
e   0.4997526      Incl.   13.05248     +0.24178127     -0.00531697
P   3.99           H   16.4           G   0.15           U   2
From 169 observations at 3 oppositions, 1995-2007, mean residual 0".46.
An explanation of the orbital elements is available.

These orbital elements are also available in forms suitable for loading into a number of popular planetarium-type software programs.


Ephemeris

The following ephemeris is at intervals of five days. A daily ephemeris covering the same time interval is also available.

Personalized ephemerides for this (and other) objects may be generated using the Minor Planet & Comet Ephemeris Service.

Date    TT    R. A. (2000) Decl.     Delta      r     Elong.  Phase     V
2008 04 14    05 22.68   +12 14.2    1.733    1.456    57.1    35.3    19.9
2008 04 19    05 39.56   +12 30.5    1.778    1.482    56.4    34.4    19.9
2008 04 24    05 56.13   +12 41.4    1.826    1.508    55.7    33.4    20.0
2008 04 29    06 12.39   +12 47.2    1.876    1.536    54.8    32.4    20.1
2008 05 04    06 28.31   +12 47.9    1.928    1.564    53.9    31.4    20.1
2008 05 09    06 43.88   +12 43.8    1.982    1.592    53.0    30.4    20.2
2008 05 14    06 59.10   +12 35.1    2.037    1.622    51.9    29.4    20.3
2008 05 19    07 13.95   +12 22.1    2.094    1.652    50.8    28.3    20.3
2008 05 24    07 28.42   +12 05.2    2.152    1.682    49.5    27.3    20.4
2008 05 29    07 42.54   +11 44.5    2.211    1.712    48.3    26.2    20.5
2008 06 03    07 56.29   +11 20.3    2.271    1.743    46.9    25.1    20.5
2008 06 08    08 09.69   +10 53.0    2.332    1.774    45.5    24.1    20.6
2008 06 13    08 22.75   +10 22.9    2.393    1.805    44.0    23.0    20.7
2008 06 18    08 35.46   +09 50.1    2.454    1.836    42.4    21.9    20.7
2008 06 23    08 47.85   +09 15.1    2.515    1.867    40.8    20.8    20.8
2008 06 28    08 59.93   +08 37.9    2.577    1.899    39.1    19.7    20.8
2008 07 03    09 11.72   +07 58.9    2.638    1.930    37.3    18.6    20.9
2008 07 08    09 23.21   +07 18.3    2.698    1.961    35.5    17.5    20.9
2008 07 13    09 34.44   +06 36.2    2.758    1.992    33.6    16.4    21.0

Back to Observable Critical-List Minor Planets

MPC

Valid HTML 4.01!